CUBESAT XI 4

Satellite information

Favourite Embed

Satellite Type and Status

PAYLOADIN ORBIT

Key statistics

Satellite CUBESAT XI 4 at a glance.

Uptime

7986

Days in orbit

Revolutions

≈ 14.2

Per day

Orbit

SSO

Sun Synchronous Orbit

Inclination

98.7

Latest

Satellite identification and parameters

Extended collection of information and parameters for CUBESAT XI 4.

Object identification

Identified? True

Debris? False

Object name: CUBESAT XI 4

International designator: 2003-031J

Object number (NORAD): 27848

Object ID (CCSDS): 27848

Country: JAPAN (JPN)

Current information (Y/N): Y

RCS size: SMALL

Orbital parameters

Period: 101.173 minutes

Inclination: 98.6793 deg

SMA: 7192.315 km

Apoapsis: 820.176 km

Periapsis: 808.183 km

RAAN: 139.6455 deg

Eccentricy: 0.0008337

Argument of periapsis: 293.8185 deg

Mean anomaly: 66.2119 deg

Mean motion: 14.23310803 rev/day

Mean motion (dot): 0.00000328 rev/day2

B* drag term: 0.00016397 1/REarth

Two-line elements (TLE)

Creation date: May 11, 2025, 2:40 a.m.

Reference frame: TEME

Reference center: EARTH

Epoch: May 10, 2025, 11:05 p.m. UTC

TLE line 0: 0 CUBESAT XI 4

TLE line 1: 1 27848U 03031J 25130.96247812 .00000328 00000-0 16397-3 0 9998

TLE line 2: 2 27848 98.6793 139.6455 0008337 293.8185 66.2119 14.23310803134157

Live tracking on map

Real-time ground track for satellite CUBESAT XI 4.

In-orbit conjunctions

There are no conjunctions computed for CUBESAT XI 4, at the moment. Check back to stay up to date, as we update our databases every day.

Go to all conjunctions

Associated space launch

MIMOSA (Micro Measurements Of Satellite Acceleration) is a microsatellite to measure atmospheric drag.

CUBESAT XI 4 was lifted into orbit during the mission ‘Rokot / Briz-KM | Mimosa’, on board a Rokot/Briz-KM space rocket.

The launch took place on June 30, 2003, 2:15 p.m. from 133/3 (133L).

For more information about the launch, click the button.

Launch to space Rokot / Briz-KM | Mimosa
Rokot / Briz-KM | Mimosa

Agency: N/A

Status: Launch Successful

Launch date: June 30, 2003, 2:15 p.m. UTC

Rocket: Rokot/Briz-KM

Launch pad: 133/3 (133L)

Location: Plesetsk Cosmodrome, Russian Federation

...

Latest news about this satellite

There are no fresh news available about this satellite. Check back as we update our databases every day.


Newsletter sign-up

Weekly statistics, charts and insights to help you stay on top of the space industry.